CAPE
1801 1792 1778 1809 1892 2068 1810 1556 1361 933 1117 1227 1282 1366 1497 1535 1747 1709 1560 1683 1444 1579 1698 1365 1688 1685 1564 1004 744 591 669 760 761 645 1053 1266 2426 2263 2714 2998 2680 2344 1526
1637 1785 1737 1766 1779 1782 1908 1706 1552 1494 1262 1205 1450 1866 1973 1822 2038 1952 1618 932 1628 1558 1459 1558 1400 1306 1891 1978 1423 1251 1072 1457 1481 1345 1091 1015 1343 2072 2430 2732 2409 1823 1743
1273 1552 1654 1753 1824 1749 1816 1873 1614 1612 1464 1064 1553 1731 1695 1604 1688 2055 1646 1308 1321 1251 1385 1320 1340 1479 1616 1441 1662 1109 961 1468 1462 1464 1324 1245 1179 1286 1514 2078 2450 1731 1879
1212 1336 1591 1769 1892 1899 1925 1952 1805 1727 1727 1487 1456 1717 1661 1674 1689 1715 1824 1773 1785 1434 1454 1445 1315 1340 1440 1788 1844 1885 1771 1597 1339 1205 1146 1088 1087 1244 1450 1472 1226 764 906
925 1162 1497 1711 1904 1998 2057 2058 1848 1879 1784 1867 1680 1449 1479 1515 1532 1771 1616 1762 2068 2025 1841 1750 1553 1373 1268 1424 1254 1731 1642 1545 1231 1150 1007 986 1029 1412 1435 1176 823 727 891
640 852 1084 1165 1746 1886 1955 1991 2021 1965 1995 1983 1881 1620 1238 716 660 1020 1532 1668 1841 2111 2232 2431 2388 2100 1506 1247 993 641 854 1813 2048 1018 394 293 699 609 315 489 741 550 587
83 101 353 1005 965 1180 1537 1800 1951 2071 2001 2032 1923 1822 1627 1368 356 347 818 1337 1674 1986 2217 2432 2156 1410 1675 2080 1609 897 411 247 301 837 1310 1188 968 1198 1366 1662 903 1427 1154
0 0 1 48 395 859 957 1239 1364 1762 1961 2043 2079 1957 1983 1836 1020 292 120 997 1321 1657 1971 2168 2162 2004 2121 2332 2197 2147 2217 2019 1558 932 847 1005 1408 1684 1820 1687 1572 1917 1795
0 0 0 0 2 33 548 913 909 1065 1359 1545 1813 1926 2092 1996 1419 851 278 254 481 1202 1763 1953 2176 2470 2362 1535 1744 2204 2221 2257 1380 1685 1723 1714 1686 1522 1264 1032 658 272 118
0 0 0 0 0 4 9 242 650 1233 1528 1371 1239 1461 1667 1820 1875 1236 623 761 467 431 458 1118 1315 1789 1996 1855 1715 1870 2157 2092 1838 1027 1167 922 735 809 542 644 962 705 377
0 0 0 0 0 0 0 35 358 732 917 1319 1550 1528 1446 1560 1778 1196 912 1143 905 740 658 560 429 542 516 853 1211 2038 2131 2244 1958 1415 1202 911 660 768 1646 1849 1789 1299 742
0 0 0 0 0 0 0 0 11 169 364 898 961 1179 1410 1787 1322 1183 802 750 1195 1040 989 800 755 69 4 59 208 591 863 1323 1442 952 656 364 103 78 212 554 1554 2084 1808
0 0 0 0 0 0 0 0 0 1 41 113 752 975 1049 1227 1018 1246 892 359 490 773 1109 1084 640 233 61 0 0 34 59 410 668 728 692 638 479 125 112 392 617 1973 2670
0 0 0 0 0 0 0 0 0 0 4 3 0 49 142 652 1247 1012 1373 646 136 77 315 540 512 426 332 455 624 184 79 408 524 649 697 785 767 310 242 413 382 372 524
0 0 0 0 0 0 0 0 0 0 0 0 0 0 0 0 0 0 0 26 24 336 239 660 839 686 550 723 934 1026 1209 925 680 648 858 965 786 459 323 384 409 388 380
13 2 0 0 0 0 0 0 0 0 0 0 0 0 0 0 0 0 0 0 0 0 176 614 888 1015 1161 1192 1158 1230 1473 1353 1294 1185 957 911 922 764 650 656 668 629 494
20 12 9 0 0 0 0 0 0 0 0 0 0 0 0 0 0 0 0 0 0 0 38 651 1284 949 1057 1276 1663 1697 1703 1679 1557 1080 1195 1353 1215 1159 969 868 857 917 704
4 0 0 3 0 0 0 0 0 0 0 0 0 0 0 0 0 0 0 0 0 0 45 751 1199 1168 909 1125 1322 1621 1742 1883 1869 1643 1337 1354 1375 1000 722 704 703 620 543
3 0 2 9 8 2 0 0 0 0 0 0 0 0 0 0 0 0 0 0 0 6 149 176 496 702 1013 924 1207 1616 1778 1745 1581 1445 1439 1386 1413 1435 1144 739 508 371 621
2 2 4 4 6 8 3 0 0 0 0 0 0 0 0 0 0 0 0 3 0 0 16 191 234 407 519 504 1183 1502 1662 1622 1379 1181 1001 1149 1255 1130 1226 1345 1487 1567 1647
5 0 1 0 0 12 18 10 3 0 0 0 0 0 0 0 0 0 1 0 0 0 1 0 34 48 128 779 963 1188 1257 1184 1031 791 1008 1237 1361 1259 1253 1310 1351 1163 1527
8 5 6 0 0 0 0 2 12 11 1 0 0 0 0 0 0 0 2 2 4 6 3 2 4 4 0 3 4 33 117 112 98 0 0 1 43 131 111 220 214 272 502
8 3 2 5 3 0 1 0 0 2 5 11 3 1 1 3 1 3 5 7 7 4 5 5 4 4 7 4 8 5 3 1 2 0 0 4 0 0 12 5 28 47 25
5 5 5 2 2 6 6 5 5 5 2 2 1 1 2 1 3 7 7 7 7 6 5 4 4 5 5 6 7 5 3 2 4 4 4 4 3 1 2 0 0 0 0
6 4 5 3 2 2 2 3 4 4 4 5 1 2 2 3 6 6 6 5 5 4 4 6 5 7 6 4 2 2 0 1 0 2 3 1 1 0 0 0 0 0 0
3 1 1 2 1 2 2 4 4 6 3 2 1 2 3 4 5 5 5 4 4 4 4 5 4 2 1 0 0 0 0 0 1 1 1 1 1 0 0 0 0 0 0
CIN
-6 -8 -14 -23 -16 -9 -14 -17 -19 -20 -8 -2 -16 -1 -1 -1 0 -1 -7 -2 -8 -2 -7 -2 -1 -10 -7 -1 -9 -29 -28 -24 -29 -41 -29 -48 -22 -52 -53 -61 -89 -114 -124
-2 -2 -4 -12 -12 -12 -19 -21 -28 -27 -22 -8 -2 -2 -1 -1 -2 -2 -1 -1 -1 0 0 0 -1 -2 -5 -10 -18 -9 -7 -10 -10 -16 -56 -92 -70 -34 -54 -63 -90 -112 -108
-3 -2 -2 -2 -6 -10 -19 -25 -20 -35 -38 -28 -1 -1 -1 -1 -1 -2 -1 -1 -1 0 -1 -1 -1 -1 -1 -2 -2 -1 -3 -5 -4 -14 -30 -36 -62 -65 -75 -65 -60 -107 -90
-3 -2 -2 -2 -3 -6 -3 -2 -21 -22 -29 -36 -22 -5 0 0 -1 -1 -1 -2 -1 -1 -1 -2 0 -1 -2 -1 -1 -2 -4 -10 -5 -26 -52 -53 -34 -27 -47 -58 -88 -111 -112
-57 -10 -3 -2 -2 -2 -2 -1 -5 -11 -20 -21 -29 -24 -11 -1 -1 -1 -1 -1 -1 -1 -1 -1 -1 -1 -2 -3 -2 -2 -1 -2 -7 -8 -23 -26 -11 -9 -29 -69 -118 -126 -117
-120 -50 -12 -14 -2 -3 -2 -1 -2 -6 -6 -7 -15 -30 -31 -42 -28 -5 -2 -1 -1 -1 -2 -1 -1 -3 -10 -25 -47 -73 -63 -16 -8 -42 -109 -148 -83 -81 -126 -119 -116 -169 -179
-232 -216 -118 -16 -13 -5 -3 -3 -2 -4 -6 -6 -10 -11 -24 -36 -106 -112 -46 -7 -1 -1 -1 0 -1 -2 -11 -10 -43 -78 -137 -197 -208 -106 -68 -79 -89 -60 -50 -48 -102 -66 -113
0 0 0 -233 -91 -12 -16 -6 -8 -3 -2 -3 -5 -10 -9 -17 -69 -151 -175 -28 -10 -8 -2 -1 -4 -2 -4 -3 -4 -2 -14 -30 -57 -107 -143 -129 -81 -68 -35 -24 -43 -24 -57
0 0 0 0 0 -219 -29 -7 -23 -18 -13 -13 -6 -4 -3 -13 -36 -91 -148 -109 -74 -29 -11 -5 -3 0 -1 -24 -8 -1 -1 -1 -10 -24 -35 -53 -73 -69 -72 -57 -127 -157 -229
0 0 0 0 0 0 -126 -108 -43 -2 -1 -5 -22 -14 -7 -7 -10 -58 -125 -61 -61 -82 -91 -53 -40 -9 -4 -8 -11 -9 -4 -13 -9 -35 -12 -71 -113 -128 -169 -152 -104 -114 -145
0 0 0 0 0 0 0 -172 -56 -3 -2 -1 -1 -2 -6 -7 -8 -61 -97 -50 -55 -38 -43 -46 -94 -132 -139 -98 -60 -8 -13 -8 -10 -23 -22 -47 -83 -81 -31 -49 -66 -69 -104
0 0 0 0 0 0 0 0 -76 -72 -70 -3 -7 -5 -5 -1 -29 -46 -114 -136 -60 -48 -41 -9 -8 -67 -76 -98 -163 -128 -98 -50 -15 -25 -68 -127 -162 -173 -93 -36 -19 -50 -34
0 0 0 0 0 0 0 0 0 -7 -106 -86 -2 -2 -5 -4 -54 -23 -63 -183 -149 -79 -54 -56 -61 -93 -109 0 0 -248 -237 -106 -60 -58 -103 -136 -124 -127 -116 -60 -30 -10 -10
0 0 0 0 0 0 0 0 0 0 -3 -1 -6 -63 -100 -31 -2 -23 -4 -67 -269 -254 -162 -119 -128 -111 -148 -110 -64 -216 -262 -138 -108 -78 -94 -92 -82 -99 -92 -65 -56 -56 -28
0 0 0 0 0 0 0 0 0 0 0 0 0 0 0 0 0 0 -32 -189 -201 -156 -114 -45 -56 -83 -115 -89 -42 -21 -5 -56 -103 -105 -51 -33 -50 -79 -81 -57 -34 -36 -30
-2 -2 0 0 0 0 0 0 0 0 0 0 0 0 0 0 0 0 0 0 0 0 -157 -58 -49 -23 -17 -16 -11 -9 0 -4 -2 -8 -32 -26 -19 -14 -17 -15 -5 -5 -18
0 -1 -3 0 0 0 0 0 0 0 0 0 0 0 0 0 0 0 0 0 0 0 -205 -39 -9 -32 -4 -4 -1 0 -1 -3 -7 -9 0 0 0 0 -1 -2 -1 -1 -3
-1 -2 0 -3 0 0 0 0 0 0 0 0 0 0 0 0 0 0 0 0 0 0 -197 -42 -12 -16 -17 -8 -12 -17 -22 -4 -4 -14 -9 -5 -2 -1 -3 -2 -1 -3 -5
-1 -1 -1 -3 -5 -6 -1 0 0 0 0 0 0 0 0 0 0 0 0 0 0 -57 -96 -110 -67 -38 -15 -29 -7 -4 -15 -7 -7 -7 -2 -1 -4 -1 -1 -1 -3 -7 -7
-1 -2 -2 -2 -4 -4 -3 0 0 0 0 0 0 0 0 0 0 0 0 0 0 0 -124 -26 -120 -19 -31 -41 -2 -9 -3 -5 -13 -9 -6 -3 -3 -4 -1 -4 -4 -2 -4
-1 -2 -1 -1 -1 -1 -3 -3 -3 0 0 0 0 0 0 0 0 0 0 0 0 0 0 0 -69 -63 -18 -3 -2 -3 -3 -2 -7 -5 0 -1 -2 0 -2 -1 -6 -7 -1
-1 -2 -2 -1 0 0 0 -3 -4 -3 -3 -1 -1 0 0 0 0 0 0 0 0 0 0 0 0 0 0 0 0 -98 -134 -164 -168 0 0 0 -76 -51 -90 -37 -54 -67 -43
0 0 0 0 0 -2 -1 0 -1 -2 -3 -4 -5 -1 -1 -1 0 0 0 0 0 0 0 0 0 0 0 0 0 0 0 0 0 0 0 -60 -22 -108 -180 -156 -195 -217 -198
-1 -1 0 0 0 0 0 0 0 0 0 0 0 0 0 0 0 0 0 0 0 0 0 0 0 0 0 0 0 0 0 0 0 0 0 0 0 0 0 0 0 0 0
0 -1 0 0 0 0 0 0 0 -1 0 0 0 0 0 0 0 0 0 0 0 0 0 0 0 0 0 0 0 0 0 0 0 0 0 0 0 0 0 0 0 0 0
-2 0 0 0 0 0 0 0 0 0 0 0 0 0 0 0 0 0 0 0 0 0 0 0 0 0 0 0 0 0 0 0 0 0 0 0 0 0 0 0 0 0 0
Wind_Speed
13 16 15 15 12 10 10 8 9 21 28 16 16 10 13 14 11 23 25 18 25 26 25 24 19 27 26 25 24 25 26 26 26 26 27 25 25 27 27 28 26 22 21
13 14 15 18 18 13 10 8 6 7 9 15 10 4 25 21 7 17 24 26 7 26 26 26 27 27 28 29 28 27 27 28 29 31 31 31 27 28 28 29 29 27 26
10 11 12 14 16 16 14 13 10 7 6 5 6 4 4 16 26 13 22 24 21 11 26 25 26 26 27 28 28 29 29 8 12 13 31 31 31 30 30 28 13 23 17
19 9 11 11 14 16 17 16 14 13 11 7 7 7 6 4 8 19 15 10 25 23 6 26 25 24 26 23 22 28 26 28 29 27 25 30 16 20 14 10 30 31 32
24 23 14 12 13 17 20 17 17 16 14 16 14 11 10 7 6 6 8 7 7 19 32 19 7 29 25 21 27 17 24 24 27 28 30 28 27 27 28 31 32 33 32
23 25 27 24 20 15 18 22 21 20 18 18 17 15 14 11 9 8 7 6 6 6 6 4 25 29 4 7 8 32 30 26 26 28 31 31 32 33 32 33 34 35 36
23 25 26 29 28 28 25 24 21 21 24 21 21 22 20 19 26 16 12 15 20 11 8 8 6 7 6 4 5 11 20 17 7 17 22 24 35 31 31 34 34 35 36
23 25 26 25 26 29 29 28 27 27 24 26 27 25 26 25 21 21 21 21 26 30 27 14 10 10 29 14 9 9 7 7 8 7 8 9 8 14 20 22 23 29 27
24 25 27 28 29 30 30 32 29 30 30 29 29 30 30 32 30 22 24 26 27 30 30 29 24 19 14 14 23 16 14 14 14 10 10 10 9 9 16 28 33 34 31
26 25 25 27 30 31 32 32 32 32 31 28 29 30 31 32 30 29 26 29 31 31 29 25 24 23 23 19 17 19 15 16 21 24 20 11 14 14 12 12 11 10 9
30 29 28 27 28 29 32 32 33 34 33 34 35 33 30 30 27 26 26 29 33 34 34 36 29 21 22 22 21 21 19 26 24 21 15 14 17 17 13 12 10 9 10
33 33 32 31 30 30 30 32 33 33 32 35 34 36 36 33 32 31 27 23 30 36 42 38 35 33 24 22 22 24 22 22 23 20 18 15 21 22 21 16 12 11 10
37 36 35 34 33 31 31 31 32 32 32 33 33 34 33 32 35 36 34 34 30 32 39 42 43 41 36 32 24 23 22 25 24 27 27 25 27 26 24 25 24 17 12
41 41 38 37 36 35 32 31 31 32 31 32 32 32 34 36 33 31 35 34 35 36 37 41 43 45 45 44 34 31 29 29 29 32 32 32 30 26 25 23 20 20 22
43 43 42 40 39 38 36 35 34 34 34 36 37 38 37 36 32 33 36 39 37 34 35 35 36 33 35 37 36 35 31 29 30 32 35 35 31 28 25 25 24 25 24
44 43 42 42 40 40 41 40 38 38 37 38 38 38 39 40 43 41 43 44 44 43 38 33 31 29 31 30 29 31 33 32 33 30 27 28 32 31 28 26 25 25 27
40 42 43 44 44 45 41 43 45 41 39 39 38 38 38 40 41 43 44 44 43 41 41 41 37 33 32 32 31 30 30 30 29 28 31 29 26 25 25 27 28 27 25
42 43 44 45 46 46 47 46 44 45 46 42 38 37 36 39 38 40 44 40 40 35 38 37 37 38 37 37 42 40 38 36 33 34 35 35 34 32 32 31 29 27 25
42 42 42 44 46 46 46 47 48 47 47 47 44 41 38 32 38 41 38 38 41 42 37 36 36 38 36 35 35 36 34 34 34 33 31 30 31 33 33 29 28 28 30
42 44 44 45 46 47 47 47 49 49 49 49 47 46 43 42 42 43 42 40 40 42 42 41 38 42 37 36 39 30 32 35 35 35 31 28 28 28 30 32 32 33 33
42 43 45 47 47 47 47 47 47 48 49 50 49 45 38 42 46 45 44 42 41 41 41 41 40 39 42 31 33 31 32 35 39 44 42 26 25 28 28 27 29 31 33
43 44 44 46 47 46 45 46 47 47 48 50 49 48 44 46 46 44 43 42 40 39 39 40 41 37 34 36 35 31 32 33 36 43 40 42 23 30 33 30 27 28 29
42 43 43 43 45 47 49 46 46 47 47 48 46 48 49 48 46 44 42 40 39 38 37 36 35 37 34 32 32 32 33 31 30 25 22 27 27 28 28 25 21 24 24
40 41 42 42 43 44 45 45 44 45 47 49 48 47 49 49 47 45 41 38 36 35 34 32 31 29 32 31 31 30 33 33 32 28 23 22 22 23 25 21 21 21 18
37 38 39 40 41 42 42 41 40 40 42 44 44 46 48 47 45 42 39 35 33 32 32 30 29 26 27 26 27 28 28 25 24 23 21 22 22 21 19 17 17 19 20
34 35 36 37 38 39 38 37 37 38 38 40 42 42 43 44 42 39 36 32 29 27 26 25 25 21 21 20 21 21 21 21 20 19 19 19 17 17 16 16 16 17 18
Wind_Direction
262 264 266 268 269 274 276 285 292 269 246 286 161 119 132 140 127 196 226 267 226 226 237 248 278 240 241 246 241 231 243 248 238 238 267 276 289 267 275 282 275 267 269
264 264 264 266 268 269 270 272 276 290 291 286 299 336 201 181 122 176 195 220 278 231 227 243 241 236 247 242 247 259 260 269 268 267 261 261 250 265 267 279 281 280 278
265 260 260 264 268 268 269 272 272 274 279 275 278 281 170 176 207 164 190 200 207 275 247 260 258 264 264 254 263 252 255 313 318 317 272 277 272 283 274 269 327 259 250
273 259 261 259 266 268 271 271 272 272 274 269 268 271 272 200 176 188 177 169 203 201 165 268 274 280 274 287 292 276 285 280 285 295 297 283 328 324 337 340 302 299 296
282 277 274 266 269 271 271 272 273 272 272 274 276 275 272 264 223 202 189 186 181 200 247 277 246 263 283 293 278 305 293 295 290 290 286 295 303 305 304 300 281 290 313
289 280 272 280 275 273 273 271 273 274 274 273 273 273 272 267 250 252 248 244 239 216 210 238 279 278 289 305 304 238 278 291 296 293 290 291 294 293 297 293 293 292 296
291 288 284 274 275 272 274 274 275 275 274 272 272 273 273 272 276 272 260 275 285 277 263 277 260 214 227 266 258 209 214 213 239 309 308 306 282 300 305 300 297 296 299
303 292 288 286 285 280 275 275 276 275 276 274 273 274 274 274 272 273 274 274 277 277 282 280 263 269 285 297 290 294 287 282 282 261 252 251 270 313 315 319 321 314 319
311 303 293 288 286 285 284 278 278 276 274 275 275 274 273 273 274 270 272 274 276 276 278 280 283 285 279 278 291 293 294 296 301 242 241 246 260 290 316 310 302 302 313
304 307 308 301 290 286 284 283 280 277 275 277 276 277 277 276 276 275 272 274 275 276 278 275 273 275 280 277 274 283 268 281 297 301 306 272 249 249 266 292 291 266 259
297 298 302 304 302 296 288 285 283 281 279 277 276 277 277 278 279 276 274 274 275 276 276 276 278 261 241 247 267 272 250 290 292 292 270 257 295 301 298 296 287 279 291
293 292 294 296 299 300 296 287 283 283 282 278 279 277 276 278 277 279 279 271 276 276 273 277 279 279 269 250 249 241 245 272 283 281 279 270 297 301 304 304 288 271 279
288 289 289 290 291 295 296 293 287 283 282 281 281 278 282 283 281 280 281 278 276 275 277 276 276 279 282 281 267 263 258 274 277 284 285 287 292 295 298 301 303 304 286
284 283 285 286 286 287 288 290 289 285 284 282 283 284 283 284 286 286 283 289 283 281 279 278 277 276 276 277 282 281 279 279 280 283 285 287 289 290 290 294 294 297 298
283 281 280 282 283 282 282 282 283 285 285 284 282 283 284 284 290 291 290 286 290 291 290 283 283 281 278 279 279 278 280 281 281 282 282 284 285 286 286 289 291 295 295
283 281 280 278 278 279 280 280 280 280 284 283 283 282 284 283 283 286 287 287 286 285 283 284 284 283 280 281 280 279 278 277 279 281 283 283 283 284 286 288 289 289 293
290 284 280 279 277 276 276 277 278 279 280 281 282 283 283 285 287 288 288 289 289 288 279 277 278 281 283 282 281 281 279 279 277 276 280 283 285 285 285 286 288 290 290
292 286 281 279 277 276 275 274 275 276 276 277 282 282 283 285 287 290 290 294 288 290 284 276 276 276 277 281 276 279 280 281 280 279 279 280 282 284 285 285 286 287 288
294 289 282 279 278 277 276 274 274 274 274 275 277 279 283 281 288 289 292 290 288 285 287 281 278 276 275 276 280 280 280 278 281 279 277 276 279 279 281 282 284 285 289
295 289 283 278 277 275 275 275 273 272 272 273 273 275 278 281 285 286 286 289 289 287 284 283 280 274 272 271 274 279 281 280 281 278 274 275 277 278 279 279 282 286 288
295 289 285 279 277 275 274 273 275 274 273 272 272 275 277 278 280 284 284 286 289 290 288 284 281 281 287 271 275 281 282 284 283 281 270 267 273 277 280 282 285 286 288
295 289 284 279 276 276 276 275 275 275 274 273 272 271 276 277 278 282 283 283 286 290 290 288 282 279 281 282 282 286 287 289 287 294 297 297 294 287 286 284 290 293 292
297 291 286 281 276 274 274 277 277 276 276 277 277 271 272 272 274 277 281 284 284 287 290 292 287 276 278 280 286 289 290 289 289 292 304 293 290 297 299 305 301 297 298
300 292 285 282 279 276 276 278 279 280 277 276 276 273 269 269 271 273 277 281 282 285 288 290 290 288 282 282 289 294 288 285 289 291 295 303 298 300 300 306 304 304 310
306 297 288 285 282 281 281 281 282 283 280 277 275 272 267 265 266 268 272 278 280 282 285 288 289 289 291 290 289 288 290 292 293 299 299 296 296 298 301 306 306 307 308
312 307 299 294 291 288 287 286 284 283 282 279 274 272 265 261 262 264 267 272 277 278 284 286 289 291 292 294 295 294 296 298 304 306 304 301 303 303 304 304 306 309 311